Location: Lachapelle
(49.2694°N, 2.2353°E)
Time: 10:30:46
(UTC+00:00)

Daily predictions for brighter satellites

Satellite Brightness Start Highest point End
(mag) Time Altitude Azimuth Time Altitude Azimuth Time Altitude Azimuth
BREEZE-M DEB (TANK) 3.5 20:10:40 10° WSW 20:13:49 66° SSE 20:23:22 10° ENE
Cosmos 1470 Rocket 4.3 20:10:04 10° N 20:14:08 37° ENE 20:18:09 10° SE
Landsat 7 4.2 20:11:02 10° S 20:15:43 65° WSW 20:20:26 10° NNW
Cosmos 44 3.3 20:12:29 10° NW 20:16:48 64° SW 20:21:04 10° SSE
Meteor 1-5 Rocket 4.5 20:12:32 10° NNW 20:18:00 69° W 20:23:16 10° S
Cosmos 1315 Rocket 2.9 20:17:07 10° N 20:21:16 80° ENE 20:25:19 10° SSE
Cosmos 1814 Rocket 4.3 20:19:06 10° NNW 20:24:12 65° WSW 20:29:16 10° S
Meteor 1-11 Rocket 4.1 20:19:37 10° N 20:25:32 60° ENE 20:31:25 10° SSE
Sich 1 4.1 20:21:20 10° NNW 20:25:33 46° W 20:29:43 10° SSW
Cosmos 1697 Rocket 3.5 20:21:13 10° SSE 20:26:05 31° ESE 20:30:58 10° NE
Spot 2 Rocket 4.2 20:23:16 10° SE 20:27:54 39° ENE 20:32:35 10° N
Cosmos 2297 Rocket 2.3 20:22:13 10° NNW 20:27:55 87° WSW 20:33:34 10° SSE
Cosmos 1515 Rocket 4.3 20:27:26 10° SSE 20:31:21 34° E 20:35:19 10° NNE
BREEZE-M DEB (TANK) 1.8 20:31:12 10° WSW 20:34:11 57° SSE 20:36:19 10° E
USA 245 4.5 20:33:24 10° SSE 20:38:55 71° ENE 20:45:12 10° N
ARIANE 5 R/B 4.0 20:36:22 10° ESE 20:40:04 26° ENE 20:43:50 10° N
SPOT 1/Viking Rocket 3.8 20:37:13 10° S 20:42:22 69° WSW 20:47:33 10° NNW
Geosat FO 4.4 20:39:12 11° SSE 20:42:27 89° WSW 20:45:49 10° NNW
ATLAS 2AS CENTAUR R/B 4.1 20:40:33 10° SSE 20:45:55 21° ESE 20:51:11 10° ENE
CARTOSAT-1 3.5 20:42:13 10° SSE 20:46:31 85° ENE 20:50:53 10° NNW
NOSS 3-4 (A) 3.5 20:44:17 10° SSW 20:49:43 47° ESE 20:55:34 10° NE
NOSS 3-4 (C) 3.5 20:44:21 10° SSW 20:49:48 47° ESE 20:55:40 10° NE
Aureole 1 Rocket 3.1 20:52:59 13° SSE 20:55:32 30° ESE 20:58:15 10° NE
Cosmos 2219 3.2 20:53:21 10° NNW 20:59:01 82° WSW 21:03:54 14° SSE
Cosmos 921 Rocket 3.7 20:55:46 10° N 21:00:07 44° ENE 21:03:26 16° SE
RESURS DK-1 4.5 21:00:59 11° ESE 21:01:11 11° E 21:02:03 10° E
CZ-4B R/B 3.2 20:59:07 10° N 21:02:02 31° WNW 21:04:54 10° SW
Cosmos 482 Debris 4.4 20:59:43 10° WNW 21:02:26 57° NNE 21:06:36 10° E
USA 267 4.0 20:56:23 10° E 21:02:40 51° NNE 21:08:57 10° WNW
H-2A R/B 4.0 21:00:10 10° N 21:03:44 29° WNW 21:07:17 10° SW
Cosmos 1536 2.9 21:03:14 10° NNW 21:07:15 79° W 21:10:43 14° S
Cosmos 389 Rocket 2.4 21:04:05 10° N 21:07:34 79° ENE 21:10:02 18° SSE
SPOT 5 3.1 21:03:09 14° SSE 21:07:48 79° ENE 21:13:02 10° NNW
Cosmos 2082 3.8 21:03:46 10° NNW 21:09:26 68° ENE 21:13:46 17° SE
Cosmos 2034 Rocket 4.2 21:05:04 11° SSE 21:10:53 56° E 21:17:04 10° NNE
Cosmos 1184 Rocket 2.8 21:09:25 19° SSE 21:11:19 51° E 21:14:17 10° NNE
Helios 1A Rocket 3.0 21:08:57 14° S 21:12:18 74° WSW 21:16:19 10° NNW
Cosmos 1328 Rocket 4.4 21:10:33 10° SSW 21:14:43 49° WNW 21:18:56 10° N
Cosmos 2292 Rocket 4.2 21:12:53 10° NNE 21:15:43 25° ENE 21:16:59 19° ESE
Cosmos 405 4.1 21:12:55 10° NNW 21:16:05 37° W 21:19:10 11° SSW
Okean 1 3.8 21:14:48 19° SSE 21:17:14 42° E 21:21:03 10° NNE
Cosmos 968 Rocket 4.1 21:12:10 10° SW 21:17:16 60° WNW 21:22:22 10° NNE
Cosmos 1515 3.7 21:13:42 10° SSW 21:17:28 78° W 21:21:16 10° N
ERS-1 Rocket 3.0 21:13:55 16° SSE 21:17:56 85° ENE 21:23:01 10° NNW
ATLAS 3B R/B 3.9 21:14:10 10° NW 21:20:57 41° NNE 21:27:59 10° E
Geosat 4.2 21:17:27 18° SE 21:21:10 66° NE 21:26:10 10° NNW
Meteor 1-19 Rocket 4.4 21:17:59 16° SSE 21:22:10 50° E 21:27:24 10° NNE
Cosmos 1743 3.1 21:18:58 10° NNW 21:22:43 59° W 21:25:38 16° S
ISS -3.1 21:21:14 10° WNW 21:24:33 56° N 21:27:51 10° E
Cosmos 2263 Rocket 2.7 21:19:51 10° NNW 21:25:17 49° NE 21:29:18 18° ESE
BREEZE-M (TANK) 4.3 21:22:39 10° WSW 21:27:07 86° SSE 21:47:11 10° E
Cosmos 2344 3.5 21:21:54 10° SSW 21:29:13 60° ESE 21:36:44 10° NE
Cosmos 1933 Rocket 4.0 21:26:21 10° NNW 21:30:46 62° W 21:34:14 16° S
SL-4 R/B 2.3 21:27:09 10° WNW 21:31:38 59° SSW 21:34:00 24° SE
Terra 1.8 21:29:55 20° SSE 21:33:14 89° WSW 21:38:02 10° NNW
Resurs 01 Rocket 4.0 21:30:57 10° SW 21:33:55 18° W 21:36:54 10° NW
Cosmos 2227 Rocket 3.1 21:28:46 10° NW 21:34:05 42° WSW 21:38:31 14° S
Cosmos 1975 3.5 21:31:24 10° N 21:35:18 41° ENE 21:37:13 24° SE
SWAS 4.5 21:31:17 10° NNW 21:35:35 75° ENE 21:38:01 25° SE
Meteor 2-4 Rocket 4.3 21:37:44 22° SSE 21:41:03 41° E 21:46:22 10° NNE
Cosmos 1733 Rocket 4.2 21:37:35 10° N 21:41:37 32° ENE 21:43:44 21° ESE
Cosmos 1340 3.4 21:38:03 10° SSW 21:41:43 52° WNW 21:45:23 10° N
Meteor 2-21 4.5 21:38:12 10° N 21:44:18 84° W 21:48:44 20° S
Cosmos 2369 3.6 21:40:26 10° SSW 21:46:02 72° ESE 21:51:42 10° NNE
Cosmos 1980 Rocket 2.2 21:43:23 12° SSW 21:48:30 66° ESE 21:54:07 10° NNE
Cosmos 783 Rocket 4.4 21:43:22 10° NNW 21:48:37 86° ENE 21:51:38 26° SSE
CZ-2C R/B 4.0 21:47:21 10° N 21:52:06 72° WNW 21:56:25 12° SSW
Cosmos 2322 Rocket 3.8 21:53:11 15° ESE 21:54:10 16° E 21:57:25 10° ENE
Cosmos 1354 Rocket 4.0 21:51:12 16° SSW 21:55:25 75° ESE 22:00:44 10° NNE
Meteor 2-21 Rocket 4.4 21:49:56 10° N 21:56:02 90° W 22:00:00 23° S
SJ 16-02 1.3 21:56:09 26° S 21:58:29 65° ESE 22:02:51 10° NNE
Cosmos 2228 Rocket 3.1 21:55:45 23° S 21:58:35 86° E 22:03:10 10° N
Meteor 1-18 Rocket 4.2 21:56:11 22° S 21:59:57 70° E 22:05:35 10° NNE
Cosmos 1428 Rocket 4.5 21:54:09 10° N 22:00:29 88° E 22:04:31 24° S
Cosmos 1777 Rocket 4.1 22:01:35 25° S 22:04:26 57° ESE 22:09:35 10° NNE
SAR-Lupe-4 3.4 22:02:06 10° NNE 22:05:43 83° ESE 22:07:07 35° S
USA 81 4.1 22:03:54 27° SSE 22:06:46 68° E 22:12:01 10° N
Cosmos 1844 Rocket 4.2 22:02:02 10° NNW 22:06:51 28° NE 22:11:24 11° ESE
USA 215 3.4 22:02:23 10° ENE 22:08:47 52° SE 22:15:09 10° SSW
Cosmos 2227 4.4 22:03:22 10° NNW 22:09:07 68° ENE 22:12:24 26° SE
Cosmos 1697 Rocket 3.5 22:04:17 10° SW 22:09:48 52° NW 22:15:22 10° NNE
Iridium 2 4.3 22:06:17 10° N 22:09:52 41° E 22:10:50 34° ESE
Cosmos 2297 Rocket 4.4 22:07:57 10° WNW 22:11:06 15° W 22:14:13 10° SW
Cosmos 1092 Rocket 4.1 22:05:20 10° NNW 22:11:32 74° W 22:15:26 24° S
Meteor 2-16 Rocket 4.5 22:05:43 10° NNW 22:11:54 82° W 22:15:38 26° S
EXPRESS MD2 4.4 22:08:37 10° W 22:12:08 23° SW 22:12:19 23° SW
Cosmos 773 Rocket 4.2 22:09:09 10° NNW 22:14:19 61° WSW 22:16:57 28° S
Timation 2 Rocket 4.5 22:08:15 10° NW 22:14:36 56° WSW 22:18:32 25° S
Meteor 1-4 Rocket 3.7 22:12:34 10° N 22:15:38 29° ENE 22:16:23 26° E
ARIANE 5 R/B 3.6 22:13:52 22° SSW 22:16:20 41° W 22:20:38 10° NNW
Cosmos 1726 4.2 22:16:03 10° NNE 22:18:31 17° ENE 22:19:37 15° E
Cosmos 1634 Rocket 3.9 22:14:36 24° S 22:18:38 85° E 22:24:52 10° N
Iridium 4 Rocket 4.2 22:25:06 10° NNE 22:29:06 33° E 22:30:35 27° ESE
SL-16 R/B 2.8 22:27:38 31° SSE 22:29:27 39° ESE 22:34:42 10° NE
Cosmos 1733 3.6 22:28:50 10° N 22:32:33 48° ENE 22:33:22 40° ESE
ATLAS CENTAUR R/B 3.8 22:29:43 10° NNW 22:33:43 24° NNE 22:37:37 10° E
Cosmos 44 Rocket 3.1 22:29:02 10° NW 22:33:47 88° NE 22:35:37 37° SE
Cosmos 1378 3.9 22:34:17 28° SW 22:35:50 47° WNW 22:39:24 10° N
ATLAS 2AS CENTAUR R/B 2.9 22:28:05 10° SSW 22:35:53 77° SE 22:43:25 10° NE
Cosmos 1346 Rocket 2.7 22:35:44 42° SSW 22:37:03 85° WNW 22:41:06 10° N
Cosmos 1538 Rocket 3.9 22:32:49 10° NNW 22:38:07 87° WSW 22:40:18 36° SSE
RESURS DK-1 2.2 22:36:47 35° SSW 22:38:28 89° SE 22:42:37 10° NNE
NOSS 3-4 (A) 4.5 22:35:04 10° WSW 22:40:38 46° NW 22:46:47 10° NE
NOSS 3-4 (C) 4.5 22:35:07 10° WSW 22:40:43 46° NW 22:46:52 10° NE
ADEOS Rocket 3.8 22:40:52 21° ESE 22:44:01 39° ENE 22:49:26 10° N
USA 267 3.2 22:40:37 20° ESE 22:45:27 87° SW 22:52:02 10° WNW
Cosmos 2278 3.8 22:42:30 18° SW 22:46:49 76° WNW 22:52:32 10° NNE
Cosmos 1707 Rocket 4.1 22:46:00 28° SW 22:48:08 56° WNW 22:52:30 10° N
SL-24 R/B - RUBIN 2 3.5 22:49:41 10° NW 22:54:03 69° SW 22:55:13 47° S
Okean 1-7 3.6 22:54:08 38° SE 22:55:02 43° E 22:59:12 10° NNE
Cosmos 923 Rocket 4.2 22:51:25 10° NNW 22:56:44 65° ENE 22:59:07 33° SE
Cosmos 1703 Rocket 4.1 23:00:19 40° SE 23:01:17 47° E 23:05:34 10° NNE
ISS -3.5 22:58:04 10° WNW 23:00:55 55° WSW 23:00:55 55° WSW
Cosmos 2360 Rocket 3.0 23:00:22 30° SE 23:01:40 33° ESE 23:06:41 10° NE
Cosmos 1818 4.4 22:59:45 10° NNW 23:05:02 46° NE 23:09:12 16° ESE
Cosmos 1842 4.5 23:06:04 28° E 23:06:25 28° E 23:09:47 10° NNE
Cosmos 2263 Rocket 3.3 23:04:07 10° NW 23:09:00 32° WSW 23:10:59 25° SW
Cosmos 2242 Rocket 4.2 23:09:15 38° SE 23:10:17 45° E 23:14:39 10° NNE
SL-4 R/B 4.2 23:07:53 10° W 23:09:26 14° WSW 23:09:26 14° WSW
Cosmos 1441 Rocket 3.3 23:09:48 52° SW 23:10:31 67° WNW 23:14:14 10° N
Terra 4.2 23:09:42 10° WSW 23:11:42 12° W 23:13:42 10° WNW
ATLAS 3B R/B 2.9 23:04:56 10° NW 23:12:17 76° SW 23:16:23 30° SSE
Spot 4 4.0 23:11:37 40° SSW 23:13:09 61° WSW 23:17:56 10° NNW
Cosmos 1782 Rocket 3.9 23:10:12 10° N 23:14:28 55° ENE 23:15:37 41° SE
Cosmos 1937 Rocket 4.3 23:13:31 31° SE 23:14:40 34° ESE 23:19:24 10° NE
NOSS 2-1 (E) 3.0 23:15:19 58° ENE 23:15:19 58° ENE 23:18:09 10° NE
Cosmos 1066 Rocket 4.3 23:12:30 34° SSW 23:15:12 82° WNW 23:20:57 10° N
ALOS 2 2.5 23:15:18 50° S 23:16:25 85° WSW 23:20:51 10° NNW
Iridium 51 4.1 23:16:57 57° WSW 23:17:16 60° W 23:20:43 10° N
Cosmos 2112 Rocket 4.3 23:12:10 10° NNW 23:17:30 63° ENE 23:19:52 33° SE
Cosmos 2266 Rocket 3.9 23:11:32 10° N 23:17:52 86° W 23:20:37 36° S
Meteor 1-23 Rocket 4.5 23:16:51 36° SSE 23:19:02 58° E 23:24:46 10° NNE
Cosmos 1733 Rocket 4.5 23:15:30 10° NNW 23:19:21 29° W 23:20:49 24° WSW
Cosmos 1680 Rocket 3.6 23:14:57 10° NNW 23:20:17 76° ENE 23:22:24 37° SE
Cosmos 1908 Rocket 3.6 23:21:50 10° NNW 23:26:08 64° W 23:27:06 49° SSW
Okean 3 3.4 23:26:58 55° SSE 23:27:43 70° E 23:31:57 10° NNE
Cosmos 2333 Rocket 3.2 23:26:56 28° SE 23:28:15 31° ESE 23:33:11 10° NE
Cosmos 1805 4.1 23:26:29 10° NNW 23:30:06 37° W 23:30:41 35° WSW
ERS-2 2.0 23:28:42 10° NNE 23:32:20 79° WNW 23:32:44 67° SW
Cosmos 1980 Rocket 4.0 23:28:09 10° WSW 23:32:58 28° NW 23:37:50 10° NNE
MINOTAUR IV R/B 4.5 23:33:53 50° SSW 23:35:02 87° ESE 23:39:34 10° NNE
Meteor 2-10 4.4 23:30:23 10° NNW 23:35:38 55° W 23:37:21 38° SSW
H-2A R/B 3.8 23:32:52 10° N 23:36:53 56° WNW 23:38:02 40° SW
Cosmos 1898 Rocket 3.5 23:35:22 43° S 23:37:05 70° ESE 23:42:24 10° NNE
Cosmos 2322 Rocket 2.1 23:34:57 36° SSW 23:37:24 90° SE 23:43:03 10° NNE
SJ 16-02 3.8 23:34:28 10° W 23:37:31 18° NW 23:40:35 10° N
Cosmos 1766 3.4 23:34:00 10° NNW 23:37:52 58° W 23:38:21 53° SW
Cosmos 1300 Rocket 4.0 23:34:44 10° N 23:39:00 53° ENE 23:40:11 40° SE
Cosmos 990 Rocket 4.0 23:37:50 37° SSW 23:39:59 80° WNW 23:45:16 10° NNE
Meteor 1-15 Rocket 4.3 23:38:23 10° NNW 23:43:57 65° W 23:46:02 39° SSW
Meteor 1-4 Rocket 4.3 23:47:44 10° NW 23:50:17 20° W 23:50:22 20° W
Cosmos 1844 Rocket 2.7 23:45:39 10° NNW 23:51:11 64° WSW 23:53:02 41° S
NOSS 2-1 (C) 3.7 23:50:44 36° W 23:51:33 45° NW 23:54:46 10° NNE
USA 215 3.6 23:45:27 10° NE 23:51:57 68° NNW 23:58:28 10° WSW
NOSS 2-1 (D) 3.8 23:52:23 34° W 23:53:14 43° NW 23:56:26 10° NNE
Cosmos 1726 2.8 23:50:15 10° NNW 23:53:43 41° W 23:53:54 40° WSW
